[[{"header":{"parameterUnit":"m.s-1","parameterCategory":1,"la1":30.2991,"la2":30.254,"lo1":-89.0895,"lo2":-89.0444,"dy":0.0017,"dx":0.0017,"nx":28,"ny":28,"refTime":"2025-07-14T09:00:00:Z","depth":0,"parameterNumber":2,"parameterNumberName":"U-component_of_WINDS"},"data":[0,0,0,0,0,0,0,0,0,0,0,0,0,0,0,0,0,0,0,0,0,0,0,0,0,0,0,0,0,0,0,0,0,0,0,0,0,0,0,0,0,0,0,0,0,0,0,0,0,0,0,0,0,0,0,0,0,0,0.709,0.709,0,0.708,0.708,0.708,0.6989,0.6987,0.6985,0.6983,0.6979,0.6981,0.6983,0,0,0,0,0,0,0,0,0,0,0,0,0,0.7036,0.7037,0.709,0.709,0.7089,0.708,0.708,0.708,0.699,0.6987,0.6984,0.6982,0.6978,0.6981,0.6983,0,0,0,0,0,0,0,0,0,0,0,0,0,0.7046,0.7037,0.709,0.7043,0.7039,0.708,0.708,0.708,0.699,0.6987,0.6983,0.698,0.6977,0.698,0.6983,0.707,0,0,0.6993,0.6994,0,0,0,0,0,0,0,0,0.7046,0.7048,0.705,0.7046,0.7042,0.7032,0.7059,0.7077,0.6991,0.7009,0.6982,0.6979,0.7,0.7001,0.7007,0.707,0.707,0.6993,0.6995,0.6996,0.6997,0,0,0,0,0,0,0,0.7045,0.7048,0.7086,0.705,0.7045,0.7025,0.7022,0.7062,0.7024,0.7007,0.7,0.7,0.6997,0.7004,0.7006,0.707,0.6993,0.6996,0.6997,0.6999,0.7205,0.7209,0,0,0,0,0,0,0.705,0.7048,0.7086,0.7086,0.7035,0.7028,0.7026,0.7039,0.7023,0.7017,0.7003,0.6996,0.7,0.7002,0.7005,0.7107,0.6996,0.6999,0.7001,0.7202,0.7206,0.721,0,0,0,0,0,0,0.7049,0.7054,0.7087,0.7065,0.7067,0.7033,0.7048,0.704,0.7047,0.702,0.7013,0.7017,0.6998,0.7001,0.7055,0.7106,0.7,0.7003,0.7197,0.7203,0.7208,0.7311,0,0,0,0,0,0,0.7048,0.7054,0.7086,0.7066,0.7069,0.7135,0.7051,0.7043,0.7052,0.7043,0.7031,0.7026,0.6995,0.7051,0.7058,0.7108,0.7005,0.7193,0.72,0.7206,0.7303,0.7319,0.7333,0,0,0,0,0,0.7046,0.7116,0.7088,0.7093,0.7107,0.7138,0.714,0.7101,0.7056,0.7089,0.7071,0.7027,0.7098,0.7057,0.7064,0.7116,0.7189,0.7198,0.7206,0.7296,0.7316,0.7333,0,0,0,0,0,0,0.7145,0.7113,0.7081,0.7147,0.7145,0.7122,0.7162,0.7123,0.7136,0.7127,0.708,0.7079,0.714,0.7133,0.7087,0.72,0.7136,0.7146,0.7202,0.7221,0.7236,0.7237,0.7008,0,0,0,0,0,0.7174,0.72,0.7171,0.7232,0.7232,0.7197,0.7209,0.7179,0.7177,0.7177,0.7163,0.7164,0.7187,0.7203,0.7223,0.73,0.7298,0.734,0.7355,0.7368,0.7378,0.742,0.7438,0.7237,0.7237,0.7237,0,0,0.7236,0.7221,0.724,0.7251,0.7247,0.7276,0.7198,0.7232,0.7254,0.7183,0.7232,0.7222,0.722,0.7287,0.7315,0.7283,0.7432,0.7378,0.7388,0.7392,0.743,0.7449,0.7466,0.7243,0.7242,0.7241,0,0,0.7362,0.7353,0.7403,0.7399,0.7392,0.7369,0.7381,0.7363,0.7353,0.7402,0.7349,0.7375,0.7415,0.7416,0.7422,0.7548,0.7508,0.7556,0.7636,0.7678,0.7693,0.7707,0.7754,0.7771,0.7565,0.7566,0.7566,0,0.744,0.748,0.7434,0.7471,0.7478,0.7412,0.7464,0.7463,0.7464,0.7472,0.7434,0.7483,0.7477,0.7543,0.7574,0.758,0.7594,0.7558,0.7694,0.7708,0.772,0.7764,0.7782,0.7572,0.7571,0.757,0.757,0,0.7576,0.7605,0.7646,0.7647,0.7658,0.7703,0.7665,0.7683,0.7651,0.7632,0.7683,0.7673,0.769,0.7703,0.7674,0.7765,0.7745,0.7702,0.7638,0.7746,0.7787,0.7803,0.758,0.7578,0.7576,0.7575,0,0,0.7767,0.774,0.7756,0.7756,0.7743,0.7766,0.7807,0.7821,0.7838,0.7841,0.7876,0.7911,0.7871,0.7877,0.7847,0.7884,0.7986,0.7836,0.7835,0.7866,0.8088,0.8123,0.8143,0.7958,0.7961,0.7964,0.8089,0,0.789,0.7958,0.7918,0.7993,0.802,0.7957,0.7993,0.7991,0.7974,0.7996,0.7977,0.8003,0.7947,0.7951,0.7983,0.7967,0.8031,0.7957,0.7993,0.7995,0.7998,0.8164,0.82,0.8318,0.8105,0.8107,0.8109,0,0.8043,0.805,0.8128,0.811,0.812,0.8153,0.8163,0.8183,0.818,0.8165,0.8172,0.8133,0.8175,0.811,0.8168,0.8118,0.8131,0.8125,0.8128,0.8132,0.806,0.8174,0.8355,0.8374,0.8133,0.8131,0.813,0,0.8177,0.8206,0.8256,0.8257,0.8237,0.8262,0.8256,0.8248,0.8259,0.8268,0.8275,0.829,0.8299,0.8312,0.8279,0.8234,0.8342,0.8273,0.8333,0.8334,0.836,0.836,0.8548,0.8365,0.8365,0.8365,0.8364,0,0.832,0.837,0.8315,0.8347,0.8402,0.8355,0.8411,0.8398,0.8391,0.842,0.8367,0.8396,0.8349,0.8374,0.8348,0.8401,0.8405,0.8396,0.8389,0.8402,0.8403,0.8411,0.8403,0.8369,0.8368,0.8367,0.8367,0,0.8479,0.8444,0.8495,0.8471,0.8466,0.8508,0.8488,0.8517,0.8495,0.8533,0.8539,0.8506,0.8532,0.85,0.8524,0.8506,0.8579,0.8559,0.858,0.8575,0.8637,0.8632,0.8839,0.8864,0.8663,0.8665,0.8667,0,0.8573,0.861,0.859,0.8604,0.86,0.8624,0.8634,0.859,0.8603,0.8601,0.8631,0.8652,0.8667,0.8712,0.8692,0.871,0.8691,0.8762,0.8694,0.8705,0.8694,0.8693,0.8697,0.8777,0.8779,0.8781,0.8783,0,0.8745,0.8726,0.8742,0.8752,0.8766,0.8772,0.8775,0.879,0.8744,0.8762,0.8787,0.8798,0.8821,0.8844,0.8856,0.8851,0.8811,0.8804,0.8819,0.8834,0.8845,0.8841,0.862,0.88,0.8798,0.8797,0.8796,0.8795,0.8876,0.8906,0.8896,0.8916,0.8913,0.8916,0.8942,0.8923,0.8942,0.8956,0.8929,0.8961,0.8957,0.8969,0.8969,0.8995,0.8964,0.8986,0.8991,0.8998,0.9008,0.8839,0.8997,0.8996,0.8995,0.8995,0.8995,0,0.9047,0.9037,0.9055,0.906,0.9076,0.9032,0.9033,0.905,0.9078,0.9077,0.9091,0.9121,0.9142,0.9123,0.9141,0.9165,0.9147,0.9172,0.9171,0.9171,0.9033,0.9019,0.9186,0.9186,0.9186,0.9186,0.9186,0.9186,0.9138,0.9186,0.9166,0.9213,0.9203,0.9232,0.9237,0.924,0.9239,0.9273,0.9289,0.9276,0.9268,0.9284,0.9303,0.9296,0.9307,0.9338,0.9326,0.9199,0.918,0.9162,0.9149,0.934,0.9341,0.9461,0.9462,0.9463]},{"header":{"parameterUnit":"m.s-1","parameterCategory":1,"la1":30.2991,"la2":30.254,"lo1":-89.0895,"lo2":-89.0444,"dy":0.0017,"dx":0.0017,"nx":28,"ny":28,"refTime":"2025-07-14T09:00:00:Z","depth":0,"parameterNumber":3,"parameterNumberName":"V-component_of_WINDS"},"data":[0,0,0,0,0,0,0,0,0,0,0,0,0,0,0,0,0,0,0,0,0,0,0,0,0,0,0,0,0,0,0,0,0,0,0,0,0,0,0,0,0,0,0,0,0,0,0,0,0,0,0,0,0,0,0,0,0,0,-0.2228,-0.2228,0,-0.2264,-0.2264,-0.2264,-0.2322,-0.2323,-0.2324,-0.2325,-0.2358,-0.2358,-0.2358,0,0,0,0,0,0,0,0,0,0,0,0,0,-0.2206,-0.2206,-0.2228,-0.2228,-0.2229,-0.2264,-0.2264,-0.2265,-0.2322,-0.2323,-0.2324,-0.2325,-0.2359,-0.2358,-0.2358,0,0,0,0,0,0,0,0,0,0,0,0,0,-0.2226,-0.2206,-0.2228,-0.2261,-0.2265,-0.2263,-0.2264,-0.2265,-0.2321,-0.2323,-0.2324,-0.2326,-0.2359,-0.2358,-0.2358,-0.2326,0,0,-0.2358,-0.2358,0,0,0,0,0,0,0,0,-0.2224,-0.2226,-0.2256,-0.2259,-0.2263,-0.229,-0.2269,-0.2285,-0.2321,-0.23,-0.2325,-0.2327,-0.2334,-0.2336,-0.2339,-0.2328,-0.2329,-0.2358,-0.2358,-0.2358,-0.2358,0,0,0,0,0,0,0,-0.2223,-0.2225,-0.2242,-0.2256,-0.226,-0.2274,-0.2278,-0.2272,-0.2308,-0.2302,-0.2306,-0.231,-0.2336,-0.2339,-0.2341,-0.233,-0.2358,-0.2358,-0.2358,-0.2358,-0.2293,-0.2291,0,0,0,0,0,0,-0.2217,-0.2224,-0.2241,-0.2243,-0.2247,-0.2273,-0.2278,-0.228,-0.2308,-0.2314,-0.2308,-0.2312,-0.2339,-0.2341,-0.2342,-0.2306,-0.2358,-0.2358,-0.2358,-0.2295,-0.2293,-0.2291,0,0,0,0,0,0,-0.2216,-0.2218,-0.2239,-0.2234,-0.2238,-0.2272,-0.2273,-0.2279,-0.2283,-0.2313,-0.2319,-0.2305,-0.234,-0.2342,-0.233,-0.2308,-0.2358,-0.2358,-0.2297,-0.2294,-0.2292,-0.2233,0,0,0,0,0,0,-0.2215,-0.2217,-0.2206,-0.2234,-0.2238,-0.2227,-0.2272,-0.2279,-0.2282,-0.2288,-0.2311,-0.2317,-0.2341,-0.233,-0.233,-0.2308,-0.2357,-0.2299,-0.2295,-0.2293,-0.2237,-0.2229,-0.2222,0,0,0,0,0,-0.2214,-0.2187,-0.2205,-0.2207,-0.2225,-0.2226,-0.2228,-0.2258,-0.2281,-0.2269,-0.2288,-0.2316,-0.231,-0.2328,-0.2328,-0.2307,-0.23,-0.2296,-0.2293,-0.224,-0.223,-0.2222,0,0,0,0,0,0,-0.2155,-0.2192,-0.2212,-0.2193,-0.2206,-0.2235,-0.2222,-0.2246,-0.2252,-0.2257,-0.2293,-0.2298,-0.2281,-0.2293,-0.2312,-0.2277,-0.2309,-0.2306,-0.2269,-0.226,-0.2253,-0.2249,-0.2357,0,0,0,0,0,-0.214,-0.2138,-0.217,-0.2151,-0.2156,-0.2188,-0.2189,-0.2211,-0.2225,-0.2231,-0.225,-0.2261,-0.2263,-0.2262,-0.2265,-0.2239,-0.2245,-0.2225,-0.2217,-0.2211,-0.2206,-0.2193,-0.2184,-0.2279,-0.2279,-0.2279,0,0,-0.2108,-0.2128,-0.2125,-0.2139,-0.2152,-0.2148,-0.2192,-0.2186,-0.2184,-0.223,-0.2219,-0.2233,-0.2249,-0.223,-0.2222,-0.2239,-0.2182,-0.2206,-0.2201,-0.22,-0.2189,-0.218,-0.2172,-0.2276,-0.2277,-0.2277,0,0,-0.2048,-0.2064,-0.2049,-0.2061,-0.208,-0.2101,-0.2098,-0.2124,-0.2135,-0.2125,-0.216,-0.2157,-0.2158,-0.2168,-0.2173,-0.2118,-0.2143,-0.2117,-0.2077,-0.2064,-0.2056,-0.205,-0.2029,-0.2021,-0.2114,-0.2113,-0.2113,0,-0.2006,-0.2004,-0.2038,-0.2031,-0.2036,-0.2079,-0.2063,-0.2073,-0.2091,-0.2093,-0.2112,-0.2115,-0.2128,-0.2112,-0.2098,-0.2101,-0.2097,-0.2114,-0.2055,-0.2049,-0.2043,-0.2024,-0.2016,-0.211,-0.211,-0.2111,-0.2111,0,-0.195,-0.1948,-0.1934,-0.1951,-0.1955,-0.1943,-0.1975,-0.1975,-0.1997,-0.2015,-0.2005,-0.2023,-0.203,-0.2028,-0.2049,-0.2014,-0.2024,-0.2048,-0.2082,-0.203,-0.2013,-0.2005,-0.2105,-0.2107,-0.2108,-0.2108,0,0,-0.1853,-0.1891,-0.1885,-0.1893,-0.1918,-0.1916,-0.1906,-0.1914,-0.1912,-0.1924,-0.1916,-0.1916,-0.1939,-0.1945,-0.1967,-0.1956,-0.191,-0.1982,-0.1983,-0.1967,-0.1871,-0.1852,-0.1843,-0.1927,-0.1926,-0.1925,-0.187,0,-0.1797,-0.1784,-0.1815,-0.1793,-0.1791,-0.1832,-0.1823,-0.1837,-0.1854,-0.1854,-0.1874,-0.1873,-0.1904,-0.1908,-0.1898,-0.1917,-0.1891,-0.1922,-0.1919,-0.1918,-0.1912,-0.1834,-0.1813,-0.176,-0.1863,-0.1862,-0.1861,0,-0.173,-0.1739,-0.1717,-0.1743,-0.1744,-0.1735,-0.1745,-0.1745,-0.1761,-0.1775,-0.1781,-0.1808,-0.18,-0.1833,-0.1821,-0.1841,-0.1842,-0.1851,-0.185,-0.185,-0.1885,-0.183,-0.1744,-0.1735,-0.1851,-0.1852,-0.1852,0,-0.166,-0.1666,-0.1655,-0.1661,-0.1691,-0.1684,-0.1696,-0.1714,-0.1716,-0.1725,-0.1727,-0.1733,-0.1737,-0.1741,-0.1768,-0.179,-0.1753,-0.1788,-0.1763,-0.1762,-0.1752,-0.1752,-0.1663,-0.1754,-0.1754,-0.1754,-0.1755,0,-0.1593,-0.1578,-0.1623,-0.1616,-0.16,-0.1636,-0.1618,-0.1635,-0.165,-0.1645,-0.1682,-0.1676,-0.1714,-0.1713,-0.1734,-0.172,-0.1722,-0.1732,-0.1737,-0.1728,-0.1726,-0.1728,-0.1732,-0.1752,-0.1753,-0.1753,-0.1754,0,-0.1511,-0.1541,-0.1531,-0.1561,-0.1568,-0.1554,-0.158,-0.1573,-0.1594,-0.1588,-0.1588,-0.162,-0.162,-0.1649,-0.1654,-0.1669,-0.1646,-0.1659,-0.164,-0.1644,-0.1616,-0.1618,-0.1524,-0.1513,-0.1612,-0.1611,-0.1611,0,-0.1466,-0.1456,-0.1485,-0.1485,-0.1496,-0.1496,-0.1499,-0.1534,-0.1536,-0.1553,-0.1544,-0.1548,-0.1553,-0.1551,-0.1574,-0.1578,-0.1591,-0.1558,-0.1592,-0.1582,-0.1589,-0.1589,-0.1587,-0.155,-0.1549,-0.1548,-0.1547,0,-0.1383,-0.1399,-0.1403,-0.1412,-0.1415,-0.1424,-0.1434,-0.1432,-0.147,-0.147,-0.1472,-0.1475,-0.1482,-0.1484,-0.1493,-0.1505,-0.1531,-0.1536,-0.153,-0.152,-0.1509,-0.1513,-0.1619,-0.1538,-0.1539,-0.1539,-0.154,-0.154,-0.1318,-0.131,-0.133,-0.1333,-0.1345,-0.1354,-0.135,-0.137,-0.1372,-0.1381,-0.1402,-0.1399,-0.1415,-0.1431,-0.144,-0.1438,-0.1454,-0.1446,-0.1444,-0.1441,-0.1435,-0.1511,-0.144,-0.144,-0.144,-0.1441,-0.1441,0,-0.1235,-0.125,-0.1253,-0.1267,-0.127,-0.1297,-0.131,-0.131,-0.1308,-0.1321,-0.1325,-0.1327,-0.1329,-0.1353,-0.1358,-0.1352,-0.1364,-0.1352,-0.1352,-0.1354,-0.142,-0.1424,-0.1342,-0.1342,-0.1342,-0.1342,-0.1342,-0.1342,-0.1193,-0.1181,-0.1199,-0.1194,-0.1209,-0.1208,-0.1213,-0.1221,-0.1232,-0.1232,-0.1235,-0.1251,-0.1268,-0.1275,-0.1279,-0.1286,-0.1285,-0.1268,-0.1279,-0.134,-0.135,-0.1359,-0.1363,-0.1268,-0.1268,-0.1213,-0.1212,-0.1212]}]]